Skip Page Navigation
NASA JPL Caltech
NASA Logo - Jet Propulsion Laboratory + View the NASA Portal
+ Center for Near-Earth Object Studies
JPL Home Earth Solar System Stars & Galaxies Technology
JPL Solar System Dynamics
BODIES ORBITS EPHEMERIDES TOOLS PHYSICAL DATA DISCOVERY FAQ SITE MAP
JPL Small-Body Database Browser
Search: [ help ]  
74005 (1998 FH70)
Classification: Main-belt Asteroid          SPK-ID: 2074005
Ephemeris | Orbit Diagram | Orbital Elements | Mission Design | Physical Parameters | Discovery Circumstances | Close-Approach Data ]

[ show orbit diagram ]
Orbital Elements at Epoch 2459000.5 (2020-May-31.0) TDB
Reference: JPL 16 (heliocentric ecliptic J2000)
 Element Value Uncertainty (1-sigma)   Units 
e .2111346509368229 3.1041e-08  
a 2.376697827538596 1.0098e-08 au
q 1.874894561338929 7.6675e-08 au
i 3.677886401048156 3.4576e-06 deg
node 97.02902580409366 8.7531e-05 deg
peri 183.8066615321255 8.8405e-05 deg
M 314.3160930776067 1.3545e-05 deg
tp 2459170.332232242412
(2020-Nov-16.83223224)
5.0485e-05 TDB
period 1338.31818962268
3.66
8.5292e-06
2.335e-08
d
yr
n .2689943264549792 1.7143e-09 deg/d
Q 2.878501093738263 1.223e-08 au
  Orbit Determination Parameters
   # obs. used (total)      697  
   data-arc span      9008 days (24.66 yr)  
   first obs. used      1995-08-29  
   last obs. used      2020-04-27  
   planetary ephem.      DE431  
   SB-pert. ephem.      SB431-N16  
   condition code      0  
   norm. resid. RMS      .54771  
   source      ORB  
   producer      Otto Matic  
   solution date      2020-May-20 14:02:23  

Additional Information
 Earth MOID = .858445 au 
 Jupiter MOID = 2.26623 au 
 T_jup = 3.508 
[ show covariance matrix ]

Ephemeris | Orbit Diagram | Orbital Elements | Mission Design | Physical Parameters | Discovery Circumstances | Close-Approach Data ]

Physical Parameter Table
Parameter Symbol Value Units Sigma Reference Notes
absolute magnitude H 15.9   n/a MPO266272  

74005 (1998 FH70)          Discovered 1998-Mar-20 by LINEAR at Socorro
Reference: 20040415/Numbers.arcLast Updated: 2004-04-19

[ show close-approach data ]
Ephemeris | Orbit Diagram | Orbital Elements | Mission Design | Physical Parameters | Discovery Circumstances | Close-Approach Data ]
ABOUT SSD CREDITS/AWARDS PRIVACY/COPYRIGHT GLOSSARY LINKS
FirstGov 2020-Aug-12 16:26 UT
(server date/time)  
NASA Home Page
Site Manager:   Ryan S. Park
Webmaster  Alan B. Chamberlin